www.cux-wetter.de
Wetterdaten: Montag, 23.09.2013
Datum Zeit Temp. A. Feuchte A. Luftdruck Regen Wind Richtung Richtung Sonnenschein Solar Taupunkt Windchill Windben
23.09.2013 00:00 15,9 C 91 % 1021,5 hPa 0,0 l/m 27,0 km/h (5 Bft) NW 310 0 min 0 W/m 14,4 C 9,5 C 27,0 km/h (5 Bft)
23.09.2013 00:15 15,9 C 91 % 1021,5 hPa 0,0 l/m 24,4 km/h (4 Bft) NW 305 0 min 0 W/m 14,4 C 9,9 C 24,4 km/h (4 Bft)
23.09.2013 00:30 15,9 C 91 % 1021,5 hPa 0,0 l/m 28,3 km/h (5 Bft) NW 325 0 min 0 W/m 14,4 C 9,2 C 28,3 km/h (5 Bft)
23.09.2013 00:45 15,9 C 91 % 1021,5 hPa 0,0 l/m 27,6 km/h (5 Bft) NW 320 0 min 0 W/m 14,4 C 9,4 C 27,6 km/h (5 Bft)
23.09.2013 01:00 15,9 C 91 % 1021,5 hPa 0,0 l/m 26,0 km/h (4 Bft) NW 310 0 min 0 W/m 14,4 C 9,6 C 26,0 km/h (4 Bft)
23.09.2013 01:15 15,9 C 91 % 1021,5 hPa 0,0 l/m 28,8 km/h (5 Bft) NW 305 0 min 0 W/m 14,4 C 9,1 C 28,8 km/h (5 Bft)
23.09.2013 01:30 15,9 C 91 % 1021,5 hPa 0,0 l/m 25,5 km/h (4 Bft) NW 305 0 min 0 W/m 14,4 C 9,7 C 25,5 km/h (4 Bft)
23.09.2013 01:45 16,0 C 91 % 1021,5 hPa 0,0 l/m 29,0 km/h (5 Bft) N-NW 330 0 min 0 W/m 14,5 C 9,3 C 29,0 km/h (5 Bft)
23.09.2013 02:00 16,0 C 91 % 1021,5 hPa 0,0 l/m 28,0 km/h (5 Bft) NW 320 0 min 0 W/m 14,5 C 9,4 C 28,0 km/h (5 Bft)
23.09.2013 02:15 16,0 C 91 % 1021,5 hPa 0,0 l/m 26,5 km/h (4 Bft) NW 320 0 min 0 W/m 14,5 C 9,7 C 26,5 km/h (4 Bft)
23.09.2013 02:30 16,1 C 91 % 1021,5 hPa 0,0 l/m 26,6 km/h (4 Bft) NW 320 0 min 0 W/m 14,6 C 9,8 C 26,6 km/h (4 Bft)
23.09.2013 02:45 16,2 C 91 % 1021,5 hPa 0,0 l/m 25,8 km/h (4 Bft) N-NW 340 0 min 0 W/m 14,7 C 10,1 C 25,8 km/h (4 Bft)
23.09.2013 03:00 16,2 C 91 % 1021,5 hPa 0,0 l/m 27,8 km/h (5 Bft) NW 320 0 min 0 W/m 14,7 C 9,7 C 27,8 km/h (5 Bft)
23.09.2013 03:15 16,2 C 90 % 1021,5 hPa 0,0 l/m 23,8 km/h (4 Bft) NW 310 0 min 0 W/m 14,6 C 10,5 C 23,8 km/h (4 Bft)
23.09.2013 03:30 16,1 C 90 % 1021,5 hPa 0,0 l/m 24,7 km/h (4 Bft) NW 320 0 min 0 W/m 14,5 C 10,2 C 24,7 km/h (4 Bft)
23.09.2013 03:45 16,2 C 89 % 1021,5 hPa 0,0 l/m 20,9 km/h (4 Bft) N 350 0 min 0 W/m 14,4 C 11,1 C 20,9 km/h (4 Bft)
23.09.2013 04:00 16,2 C 89 % 1021,5 hPa 0,0 l/m 23,3 km/h (4 Bft) N-NW 335 0 min 0 W/m 14,4 C 10,6 C 23,3 km/h (4 Bft)
23.09.2013 04:15 16,2 C 88 % 1021,5 hPa 0,0 l/m 24,6 km/h (4 Bft) N 5 0 min 0 W/m 14,2 C 10,3 C 24,6 km/h (4 Bft)
23.09.2013 04:30 16,1 C 87 % 1021,5 hPa 0,0 l/m 31,4 km/h (5 Bft) N-NW 340 0 min 0 W/m 13,9 C 9,0 C 31,4 km/h (5 Bft)
23.09.2013 04:45 16,0 C 88 % 1021,5 hPa 0,0 l/m 19,3 km/h (3 Bft) N 355 0 min 0 W/m 14,0 C 11,2 C 19,3 km/h (3 Bft)
23.09.2013 05:00 15,9 C 88 % 1021,5 hPa 0,0 l/m 18,6 km/h (3 Bft) NW 315 0 min 0 W/m 13,9 C 11,3 C 18,6 km/h (3 Bft)
23.09.2013 05:15 15,8 C 89 % 1021,5 hPa 0,0 l/m 20,4 km/h (4 Bft) NW 325 0 min 0 W/m 14,0 C 10,7 C 20,4 km/h (4 Bft)
23.09.2013 05:30 15,7 C 89 % 1021,5 hPa 0,0 l/m 20,8 km/h (4 Bft) NW 325 0 min 0 W/m 13,9 C 10,5 C 20,8 km/h (4 Bft)
23.09.2013 05:45 15,7 C 90 % 1021,5 hPa 0,0 l/m 19,4 km/h (3 Bft) NW 315 0 min 0 W/m 14,1 C 10,8 C 19,4 km/h (3 Bft)
23.09.2013 06:00 15,8 C 90 % 1021,5 hPa 0,0 l/m 20,8 km/h (4 Bft) NW 310 0 min 0 W/m 14,2 C 10,6 C 20,8 km/h (4 Bft)
23.09.2013 06:15 15,8 C 90 % 1021,5 hPa 0,0 l/m 22,1 km/h (4 Bft) NW 320 0 min 0 W/m 14,2 C 10,3 C 22,1 km/h (4 Bft)
23.09.2013 06:30 15,7 C 90 % 1021,5 hPa 0,0 l/m 15,0 km/h (3 Bft) NW 325 0 min 0 W/m 14,1 C 12,0 C 15,0 km/h (3 Bft)
23.09.2013 06:45 15,6 C 90 % 1021,5 hPa 0,0 l/m 17,2 km/h (3 Bft) NW 305 0 min 0 W/m 14,0 C 11,3 C 17,2 km/h (3 Bft)
23.09.2013 07:00 15,7 C 90 % 1021,5 hPa 0,0 l/m 18,1 km/h (3 Bft) NW 310 0 min 0 W/m 14,1 C 11,1 C 18,1 km/h (3 Bft)
23.09.2013 07:15 15,6 C 90 % 1021,5 hPa 0,0 l/m 16,0 km/h (3 Bft) W-NW 300 0 min 0 W/m 14,0 C 11,6 C 16,0 km/h (3 Bft)
23.09.2013 07:30 15,6 C 91 % 1021,5 hPa 0,0 l/m 18,6 km/h (3 Bft) NW 315 0 min 0 W/m 14,1 C 10,9 C 18,6 km/h (3 Bft)
23.09.2013 07:45 15,5 C 91 % 1021,5 hPa 0,0 l/m 16,0 km/h (3 Bft) NW 315 0 min 0 W/m 14,0 C 11,5 C 16,0 km/h (3 Bft)
23.09.2013 08:00 15,5 C 91 % 1021,5 hPa 0,0 l/m 17,0 km/h (3 Bft) NW 315 0 min 0 W/m 14,0 C 11,2 C 17,0 km/h (3 Bft)
23.09.2013 08:15 15,7 C 91 % 1021,5 hPa 0,0 l/m 18,0 km/h (3 Bft) NW 325 0 min 0 W/m 14,2 C 11,2 C 18,0 km/h (3 Bft)
23.09.2013 08:30 15,9 C 91 % 1021,5 hPa 0,0 l/m 16,2 km/h (3 Bft) N-NW 330 0 min 0 W/m 14,4 C 11,9 C 16,2 km/h (3 Bft)
23.09.2013 08:45 16,0 C 91 % 1021,5 hPa 0,0 l/m 19,1 km/h (3 Bft) NW 310 0 min 0 W/m 14,5 C 11,3 C 19,1 km/h (3 Bft)
23.09.2013 09:00 16,1 C 91 % 1021,5 hPa 0,0 l/m 18,3 km/h (3 Bft) NW 305 0 min 0 W/m 14,6 C 11,6 C 18,3 km/h (3 Bft)
23.09.2013 09:15 16,3 C 91 % 1021,5 hPa 0,0 l/m 19,8 km/h (3 Bft) NW 305 0 min 0 W/m 14,8 C 11,5 C 19,8 km/h (3 Bft)
23.09.2013 09:30 16,5 C 92 % 1021,5 hPa 0,0 l/m 18,0 km/h (3 Bft) NW 315 0 min 0 W/m 15,2 C 12,2 C 18,0 km/h (3 Bft)
23.09.2013 09:44 16,6 C 91 % 1021,5 hPa 0,0 l/m 22,5 km/h (4 Bft) W-NW 295 0 min 0 W/m 15,1 C 11,3 C 22,5 km/h (4 Bft)
23.09.2013 10:00 16,7 C 91 % 1021,5 hPa 0,0 l/m 20,3 km/h (4 Bft) NW 310 0 min 0 W/m 15,2 C 11,9 C 20,3 km/h (4 Bft)
23.09.2013 10:15 16,9 C 91 % 1021,5 hPa 0,0 l/m 20,3 km/h (4 Bft) NW 315 0 min 0 W/m 15,4 C 12,1 C 20,3 km/h (4 Bft)
23.09.2013 10:30 17,0 C 91 % 1022,5 hPa 0,0 l/m 21,1 km/h (4 Bft) W-NW 295 0 min 0 W/m 15,5 C 12,1 C 21,1 km/h (4 Bft)
23.09.2013 10:45 17,1 C 91 % 1022,5 hPa 0,0 l/m 22,1 km/h (4 Bft) W-NW 295 0 min 0 W/m 15,6 C 12,0 C 22,1 km/h (4 Bft)
23.09.2013 11:00 17,1 C 90 % 1021,5 hPa 0,0 l/m 28,6 km/h (5 Bft) NW 315 0 min 0 W/m 15,4 C 10,9 C 28,6 km/h (5 Bft)
23.09.2013 11:15 17,1 C 90 % 1021,5 hPa 0,0 l/m 26,5 km/h (4 Bft) NW 315 0 min 0 W/m 15,4 C 11,2 C 26,5 km/h (4 Bft)
23.09.2013 11:30 17,2 C 90 % 1021,5 hPa 0,0 l/m 26,6 km/h (4 Bft) NW 320 0 min 0 W/m 15,5 C 11,3 C 26,6 km/h (4 Bft)
23.09.2013 11:45 17,3 C 89 % 1021,5 hPa 0,0 l/m 24,6 km/h (4 Bft) NW 305 0 min 0 W/m 15,5 C 11,8 C 24,6 km/h (4 Bft)
23.09.2013 12:00 17,4 C 88 % 1021,5 hPa 0,0 l/m 26,2 km/h (4 Bft) NW 325 0 min 0 W/m 15,4 C 11,7 C 26,2 km/h (4 Bft)
23.09.2013 12:15 17,4 C 88 % 1021,5 hPa 0,0 l/m 31,8 km/h (5 Bft) NW 305 0 min 0 W/m 15,4 C 10,8 C 31,8 km/h (5 Bft)
23.09.2013 12:30 17,5 C 88 % 1021,5 hPa 0,0 l/m 25,3 km/h (4 Bft) NW 315 0 min 0 W/m 15,5 C 11,9 C 25,3 km/h (4 Bft)
23.09.2013 12:45 17,6 C 88 % 1021,5 hPa 0,0 l/m 31,2 km/h (5 Bft) NW 305 0 min 0 W/m 15,6 C 11,2 C 31,2 km/h (5 Bft)
23.09.2013 13:00 17,9 C 87 % 1021,5 hPa 0,0 l/m 21,3 km/h (4 Bft) NW 305 0 min 0 W/m 15,7 C 13,2 C 21,3 km/h (4 Bft)
23.09.2013 13:15 18,0 C 86 % 1021,5 hPa 0,0 l/m 26,6 km/h (4 Bft) NW 320 0 min 0 W/m 15,6 C 12,4 C 26,6 km/h (4 Bft)
23.09.2013 13:30 18,1 C 86 % 1021,5 hPa 0,0 l/m 25,6 km/h (4 Bft) NW 320 0 min 0 W/m 15,7 C 12,7 C 25,6 km/h (4 Bft)
23.09.2013 13:45 18,1 C 86 % 1021,5 hPa 0,0 l/m 24,1 km/h (4 Bft) NW 320 0 min 0 W/m 15,7 C 13,0 C 24,1 km/h (4 Bft)
23.09.2013 14:00 18,1 C 85 % 1021,5 hPa 0,0 l/m 26,3 km/h (4 Bft) NW 315 0 min 0 W/m 15,5 C 12,6 C 26,3 km/h (4 Bft)
23.09.2013 14:15 18,1 C 86 % 1021,5 hPa 0,0 l/m 25,0 km/h (4 Bft) NW 305 0 min 0 W/m 15,7 C 12,8 C 25,0 km/h (4 Bft)
23.09.2013 14:30 18,2 C 85 % 1021,5 hPa 0,0 l/m 21,9 km/h (4 Bft) NW 310 0 min 0 W/m 15,6 C 13,5 C 21,9 km/h (4 Bft)
23.09.2013 14:45 18,2 C 85 % 1021,5 hPa 0,0 l/m 23,6 km/h (4 Bft) NW 315 0 min 0 W/m 15,6 C 13,2 C 23,6 km/h (4 Bft)
23.09.2013 15:00 18,2 C 85 % 1020,5 hPa 0,0 l/m 28,6 km/h (5 Bft) NW 320 0 min 0 W/m 15,6 C 12,4 C 28,6 km/h (5 Bft)
23.09.2013 15:15 18,4 C 84 % 1020,5 hPa 0,0 l/m 25,4 km/h (4 Bft) NW 305 0 min 0 W/m 15,6 C 13,1 C 25,4 km/h (4 Bft)
23.09.2013 15:30 18,2 C 84 % 1020,5 hPa 0,0 l/m 25,2 km/h (4 Bft) NW 325 0 min 0 W/m 15,4 C 12,9 C 25,2 km/h (4 Bft)
23.09.2013 15:45 18,0 C 84 % 1020,5 hPa 0,0 l/m 23,8 km/h (4 Bft) NW 310 0 min 0 W/m 15,3 C 12,9 C 23,8 km/h (4 Bft)
23.09.2013 16:00 18,0 C 85 % 1020,5 hPa 0,0 l/m 22,8 km/h (4 Bft) NW 320 0 min 0 W/m 15,4 C 13,1 C 22,8 km/h (4 Bft)
23.09.2013 16:15 18,0 C 85 % 1020,5 hPa 0,0 l/m 22,6 km/h (4 Bft) NW 315 0 min 0 W/m 15,4 C 13,1 C 22,6 km/h (4 Bft)
23.09.2013 16:30 18,0 C 85 % 1020,5 hPa 0,0 l/m 22,7 km/h (4 Bft) NW 325 0 min 0 W/m 15,4 C 13,1 C 22,7 km/h (4 Bft)
23.09.2013 16:45 17,9 C 85 % 1020,5 hPa 0,0 l/m 18,0 km/h (3 Bft) NW 305 0 min 0 W/m 15,3 C 13,9 C 18,0 km/h (3 Bft)
23.09.2013 17:00 17,9 C 85 % 1020,5 hPa 0,0 l/m 22,4 km/h (4 Bft) NW 325 0 min 0 W/m 15,3 C 13,0 C 22,4 km/h (4 Bft)
23.09.2013 17:15 17,9 C 84 % 1020,5 hPa 0,0 l/m 25,4 km/h (4 Bft) NW 320 0 min 0 W/m 15,2 C 12,5 C 25,4 km/h (4 Bft)
23.09.2013 17:30 17,9 C 84 % 1020,5 hPa 0,0 l/m 21,3 km/h (4 Bft) NW 315 0 min 0 W/m 15,2 C 13,2 C 21,3 km/h (4 Bft)
23.09.2013 17:45 17,8 C 83 % 1020,5 hPa 0,0 l/m 23,0 km/h (4 Bft) NW 310 0 min 0 W/m 14,9 C 12,8 C 23,0 km/h (4 Bft)
23.09.2013 18:00 17,6 C 84 % 1019,5 hPa 0,0 l/m 26,5 km/h (4 Bft) N-NW 340 0 min 0 W/m 14,9 C 11,9 C 26,5 km/h (4 Bft)
23.09.2013 18:15 17,3 C 85 % 1019,5 hPa 0,0 l/m 22,0 km/h (4 Bft) N-NW 330 0 min 0 W/m 14,8 C 12,3 C 22,0 km/h (4 Bft)
23.09.2013 18:30 17,1 C 85 % 1019,5 hPa 0,0 l/m 21,8 km/h (4 Bft) N 350 0 min 0 W/m 14,6 C 12,1 C 21,8 km/h (4 Bft)
23.09.2013 18:45 16,8 C 86 % 1019,5 hPa 0,0 l/m 24,5 km/h (4 Bft) N 355 0 min 0 W/m 14,4 C 11,1 C 24,5 km/h (4 Bft)
23.09.2013 19:00 16,7 C 86 % 1019,5 hPa 0,0 l/m 27,0 km/h (5 Bft) N 355 0 min 0 W/m 14,3 C 10,6 C 27,0 km/h (5 Bft)
23.09.2013 19:15 16,5 C 86 % 1019,5 hPa 0,0 l/m 18,5 km/h (3 Bft) N 5 0 min 0 W/m 14,1 C 12,0 C 18,5 km/h (3 Bft)
23.09.2013 19:30 16,4 C 86 % 1019,5 hPa 0,0 l/m 23,8 km/h (4 Bft) N 10 0 min 0 W/m 14,1 C 10,7 C 23,8 km/h (4 Bft)
23.09.2013 19:45 16,2 C 86 % 1019,5 hPa 0,0 l/m 24,0 km/h (4 Bft) N 355 0 min 0 W/m 13,9 C 10,4 C 24,0 km/h (4 Bft)
23.09.2013 20:00 16,1 C 85 % 1019,5 hPa 0,0 l/m 22,5 km/h (4 Bft) N 355 0 min 0 W/m 13,6 C 10,6 C 22,5 km/h (4 Bft)
23.09.2013 20:15 16,1 C 85 % 1019,5 hPa 0,0 l/m 22,7 km/h (4 Bft) N-NO 20 0 min 0 W/m 13,6 C 10,6 C 22,7 km/h (4 Bft)
23.09.2013 20:30 16,1 C 85 % 1019,5 hPa 0,0 l/m 18,7 km/h (3 Bft) N-NW 335 0 min 0 W/m 13,6 C 11,5 C 18,7 km/h (3 Bft)
23.09.2013 20:45 16,0 C 86 % 1019,5 hPa 0,0 l/m 20,1 km/h (4 Bft) N-NW 345 0 min 0 W/m 13,7 C 11,0 C 20,1 km/h (4 Bft)
23.09.2013 21:00 15,8 C 86 % 1019,5 hPa 0,0 l/m 11,8 km/h (2 Bft) NW 320 0 min 0 W/m 13,5 C 13,3 C 11,8 km/h (2 Bft)
23.09.2013 21:15 15,7 C 87 % 1019,5 hPa 0,0 l/m 14,0 km/h (3 Bft) N-NW 330 0 min 0 W/m 13,5 C 12,4 C 14,0 km/h (3 Bft)
23.09.2013 21:30 15,8 C 87 % 1019,5 hPa 0,0 l/m 11,6 km/h (2 Bft) N 350 0 min 0 W/m 13,6 C 13,3 C 11,6 km/h (2 Bft)
23.09.2013 21:45 15,9 C 87 % 1019,5 hPa 0,0 l/m 19,5 km/h (3 Bft) N 5 0 min 0 W/m 13,7 C 11,0 C 19,5 km/h (3 Bft)
23.09.2013 22:00 15,9 C 85 % 1019,5 hPa 0,0 l/m 19,1 km/h (3 Bft) N 355 0 min 0 W/m 13,4 C 11,1 C 19,1 km/h (3 Bft)
23.09.2013 22:15 15,9 C 85 % 1019,5 hPa 0,0 l/m 17,7 km/h (3 Bft) N-NW 345 0 min 0 W/m 13,4 C 11,5 C 17,7 km/h (3 Bft)
23.09.2013 22:30 16,0 C 85 % 1019,5 hPa 0,0 l/m 22,1 km/h (4 Bft) N-NO 15 0 min 0 W/m 13,5 C 10,6 C 22,1 km/h (4 Bft)
23.09.2013 22:45 15,9 C 84 % 1019,5 hPa 0,0 l/m 27,6 km/h (5 Bft) N 355 0 min 0 W/m 13,2 C 9,4 C 27,6 km/h (5 Bft)
23.09.2013 23:00 16,0 C 84 % 1019,5 hPa 0,0 l/m 19,6 km/h (3 Bft) N-NO 15 0 min 0 W/m 13,3 C 11,1 C 19,6 km/h (3 Bft)
23.09.2013 23:15 16,0 C 85 % 1019,5 hPa 0,0 l/m 13,9 km/h (3 Bft) N 350 0 min 0 W/m 13,5 C 12,8 C 13,9 km/h (3 Bft)
23.09.2013 23:30 16,0 C 85 % 1019,5 hPa 0,0 l/m 15,4 km/h (3 Bft) N 355 0 min 0 W/m 13,5 C 12,3 C 15,4 km/h (3 Bft)
23.09.2013 23:45 16,0 C 85 % 1018,5 hPa 0,0 l/m 13,8 km/h (3 Bft) N 10 0 min 0 W/m 13,5 C 12,8 C 13,8 km/h (3 Bft)
_ Min-Zeit 07:45 17:45 23:45 - 21:30 - - - - 22:45 04:30 21:30
Minimum _ 15,5 C 83 % 1018,5 hPa - 11,6 km/h (2 Bft) - - - - 13,2 C 9,0 C 11,6 km/h (2 Bft)
_ Max-Zeit 15:15 09:30 10:30 00:00 12:15 - - 00:00 00:00 13:30 16:45 12:15
Maximum _ 18,4 C 92 % 1022,5 hPa 0,0 l/m 31,8 km/h
NW (5 Bft)
- - 0 min 0 W/m 15,7 C 13,9 C 31,8 km/h
NW (5 Bft)
Durchschnitt _ 16,6 C 88 % 1020,9 hPa #0,0 l/m 22,4 km/h (4 Bft) NW - #0 min. 0 W/m 14,6 C 11,4 C 22,4 km/h (4 Bft)
copyright by Holger Just